DW1234 Weather Reports


time (UTC)temp
F
wind
direction
speed
knots
gust
knots
rain 1hr
in
rain 24hr
in
rain mn
in
humidity
%
barometer
mb
20260509072737 59 340 1.7 4.3 0.00 0.00 0.00 42 1007.9
20260509072246 59 315 1.7 4.3 0.00 0.00 0.00 42 1008.0
20260509071730 60 333 1.7 7.0 0.00 0.00 0.00 42 1008.0
20260509071526 59 337 1.7 7.0 0.00 0.00 0.00 42 1006.8
20260509071241 60 319 3.5 7.0 0.00 0.00 0.00 42 1008.0
20260509070810 60 310 4.3 8.7 0.00 0.00 0.00 42 1008.0
20260509070227 60 321 5.2 8.7 0.00 0.00 0.00 42 1008.0
20260509065739 60 325 5.2 8.7 0.00 0.00 0.00 42 1008.0
20260509065221 61 330 5.2 7.8 0.00 0.00 0.00 41 1008.1
20260509064732 61 334 6.1 8.7 0.00 0.00 0.00 41 1008.1
20260509064536 60 306 6.1 8.7 0.00 0.00 0.00 41 1007.1
20260509064245 61 318 6.1 8.7 0.00 0.00 0.00 41 1008.2
20260509063729 61 333 4.3 7.8 0.00 0.00 0.00 41 1008.2
20260509063300 62 301 5.2 8.7 0.00 0.00 0.00 40 1008.2
20260509063011 61 329 5.2 8.7 0.00 0.00 0.00 40 1007.1
20260509062748 62 328 5.2 8.7 0.00 0.00 0.00 40 1008.1
20260509062238 62 338 6.1 10.4 0.00 0.00 0.00 40 1008.1
20260509061748 62 340 6.1 10.4 0.00 0.00 0.00 40 1008.1
20260509061607 62 338 7.0 10.4 0.00 0.00 0.00 40 1007.0
20260509061231 62 349 7.8 11.3 0.00 0.00 0.00 40 1008.1
20260509060801 62 344 7.0 11.3 0.00 0.00 0.00 40 1008.2
20260509060311 62 329 7.8 12.2 0.00 0.00 0.00 40 1008.1
20260509060012 62 327 7.0 12.2 0.00 0.00 0.00 40 1007.0
20260509055728 62 347 7.8 12.2 0.00 0.00 0.00 40 1008.1
20260509055240 62 340 7.8 11.3 0.00 0.00 0.00 40 1008.1
20260509054724 63 329 7.8 11.3 0.00 0.00 0.00 40 1008.0
20260509054509 62 326 7.0 12.2 0.00 0.00 0.00 40 1007.0
20260509054420 63 323 7.8 12.2 0.00 0.00 0.00 40 1008.0
20260509053727 62 304 8.7 11.3 0.00 0.00 0.00 40 1008.0
20260509053238 62 330 7.8 11.3 0.00 0.00 0.00 40 1007.9
20260509053052 62 331 7.8 11.3 0.00 0.00 0.00 40 1006.8
20260509052721 62 336 7.0 9.6 0.00 0.00 0.00 41 1007.9
20260509052250 62 327 7.0 9.6 0.00 0.00 0.00 41 1007.9
20260509051740 62 318 6.1 9.6 0.00 0.00 0.00 40 1007.8
20260509051513 62 317 6.1 9.6 0.00 0.00 0.00 41 1006.7
20260509051224 62 311 7.0 11.3 0.00 0.00 0.00 40 1007.8
20260509050734 62 326 7.0 11.3 0.00 0.00 0.00 41 1007.7
20260509050245 62 311 7.8 10.4 0.00 0.00 0.00 41 1007.7
20260509050013 62 314 7.0 10.4 0.00 0.00 0.00 41 1006.8
20260509045729 63 310 6.1 8.7 0.00 0.00 0.00 41 1007.8
20260509045240 63 311 6.1 7.8 0.00 0.00 0.00 41 1007.7
20260509044725 63 298 6.1 7.8 0.00 0.00 0.00 41 1007.7
20260509044517 62 315 6.1 7.8 0.00 0.00 0.00 40 1006.6
20260509044234 63 321 5.2 8.7 0.00 0.00 0.00 40 1007.7
20260509043805 63 310 5.2 8.7 0.00 0.00 0.00 39 1007.6
20260509043226 62 350 5.2 9.6 0.00 0.00 0.00 40 1007.5
20260509043100 62 312 5.2 9.6 0.00 0.00 0.00 40 1006.5
20260509042739 62 325 5.2 9.6 0.00 0.00 0.00 40 1007.6
20260509042248 62 299 4.3 7.0 0.00 0.00 0.00 40 1007.6
20260509041733 62 316 4.3 7.8 0.00 0.00 0.00 41 1007.6
20260509041507 61 319 3.5 7.8 0.00 0.00 0.00 41 1006.6
20260509041244 62 298 4.3 7.8 0.00 0.00 0.00 41 1007.7
20260509040725 62 306 4.3 6.1 0.00 0.00 0.00 41 1007.5
20260509040233 62 302 3.5 6.1 0.00 0.00 0.00 42 1007.7
20260509040005 62 319 1.7 3.5 0.00 0.00 0.00 42 1006.6
20260509035804 62 319 2.6 4.3 0.00 0.00 0.00 42 1007.6
20260509035247 62 5 0.9 4.3 0.00 0.00 0.00 41 1007.6
20260509034730 62 293 2.6 5.2 0.00 0.00 0.00 41 1007.5
20260509034545 62 269 3.5 5.2 0.00 0.00 0.00 41 1006.4
20260509034242 62 259 3.5 5.2 0.00 0.00 0.00 42 1007.5
20260509033753 63 346 2.6 6.1 0.00 0.00 0.00 43 1007.6
20260509033233 63 272 2.6 6.1 0.00 0.00 0.00 42 1007.4
20260509033012 63 257 2.6 6.1 0.00 0.00 0.00 42 1006.3
20260509032739 64 242 3.5 6.1 0.00 0.00 0.00 43 1007.4
20260509032223 64 206 1.7 3.5 0.00 0.00 0.00 42 1007.4
20260509031734 65 206 1.7 3.5 0.00 0.00 0.00 42 1007.3
20260509031514 64 206 1.7 3.5 0.00 0.00 0.00 42 1006.2
20260509031242 65 206 2.6 4.3 0.00 0.00 0.00 43 1007.3
20260509030726 65 206 2.6 4.3 0.00 0.00 0.00 43 1007.2
20260509030233 65 206 3.5 5.2 0.00 0.00 0.00 42 1007.1
20260509030014 65 206 3.5 5.2 0.00 0.00 0.00 42 1006.0
20260509025744 66 206 3.5 5.2 0.00 0.00 0.00 42 1007.0
20260509025229 66 206 3.5 6.1 0.00 0.00 0.00 42 1007.0
20260509024740 66 196 5.2 6.1 0.00 0.00 0.00 41 1007.0
20260509024554 66 187 3.5 5.2 0.00 0.00 0.00 41 1006.0
20260509024253 67 203 3.5 4.3 0.00 0.00 0.00 40 1007.0
20260509023801 67 203 3.5 4.3 0.00 0.00 0.00 40 1007.0
20260509023224 67 203 3.5 4.3 0.00 0.00 0.00 40 1006.9
20260509023006 67 203 2.6 5.2 0.00 0.00 0.00 40 1005.8
20260509022736 68 203 2.6 5.2 0.00 0.00 0.00 39 1006.9
20260509022241 68 203 3.5 5.2 0.00 0.00 0.00 39 1006.8
20260509021722 68 199 3.5 4.3 0.00 0.00 0.00 38 1006.7
20260509021508 68 199 2.6 5.2 0.00 0.00 0.00 38 1005.6
20260509021235 69 194 2.6 5.2 0.00 0.00 0.00 38 1006.6
20260509020745 69 198 3.5 5.2 0.00 0.00 0.00 37 1006.7
20260509020227 69 203 3.5 4.3 0.00 0.00 0.00 36 1006.6
20260509020005 69 201 2.6 4.3 0.00 0.00 0.00 36 1005.5
20260509015737 69 194 3.5 4.3 0.00 0.00 0.00 35 1006.5
20260509015247 70 205 2.6 4.3 0.00 0.00 0.00 35 1006.4
20260509014725 70 204 2.6 4.3 0.00 0.00 0.00 35 1006.4
20260509014507 70 204 2.6 4.3 0.00 0.00 0.00 35 1005.3
20260509014233 70 201 2.6 3.5 0.00 0.00 0.00 35 1006.4
20260509013743 71 236 2.6 3.5 0.00 0.00 0.00 34 1006.4
20260509013223 71 236 2.6 4.3 0.00 0.00 0.00 33 1006.3
20260509013003 71 236 1.7 4.3 0.00 0.00 0.00 32 1005.2
20260509012754 72 237 2.6 4.3 0.00 0.00 0.00 33 1006.3
20260509012244 72 237 2.6 7.0 0.00 0.00 0.00 33 1006.3
20260509011726 73 277 3.5 7.0 0.00 0.00 0.00 32 1006.3
20260509011542 72 246 4.3 7.0 0.00 0.00 0.00 32 1005.2
20260509011238 73 282 2.6 6.1 0.00 0.00 0.00 32 1006.3
20260509010744 73 306 2.6 7.8 0.00 0.00 0.00 32 1006.1
20260509010225 74 251 5.2 8.7 0.00 0.00 0.00 32 1006.0
20260509010046 74 249 5.2 8.7 0.00 0.00 0.00 31 1004.9
20260509005736 74 223 5.2 8.7 0.00 0.00 0.00 31 1006.0
20260509005307 75 226 4.3 8.7 0.00 0.00 0.00 31 1005.9
20260509004727 75 242 7.0 9.6 0.00 0.00 0.00 30 1005.9
20260509004534 75 254 6.1 8.7 0.00 0.00 0.00 31 1004.8
20260509004241 75 238 6.1 8.7 0.00 0.00 0.00 31 1005.9
20260509003724 75 248 5.2 8.7 0.00 0.00 0.00 31 1005.9
20260509003229 75 215 2.6 7.8 0.00 0.00 0.00 32 1005.9
20260509003005 75 215 4.3 7.8 0.00 0.00 0.00 32 1004.8
20260509002739 75 207 5.2 8.7 0.00 0.00 0.00 31 1005.8
20260509002248 76 231 6.1 8.7 0.00 0.00 0.00 31 1005.8
20260509001731 76 209 7.0 9.6 0.00 0.00 0.00 31 1005.8
20260509001504 76 214 5.2 10.4 0.00 0.00 0.00 32 1004.7
20260509001302 76 216 6.1 12.2 0.00 0.00 0.00 31 1005.8
20260509000749 77 205 7.8 12.2 0.00 0.00 0.00 30 1005.8
20260509000233 77 178 6.1 9.6 0.00 0.00 0.00 32 1005.8
20260509000046 76 210 6.1 9.6 0.00 0.00 0.00 31 1004.8
20260508235739 76 209 7.0 10.4 0.00 0.00 0.00 30 1005.8
20260508235222 77 226 7.0 14.8 0.00 0.00 0.00 30 1005.9
20260508234732 77 191 7.0 14.8 0.00 0.00 0.00 30 1005.9
20260508234554 76 201 7.0 14.8 0.00 0.00 0.00 31 1004.9
20260508234247 77 212 9.6 14.8 0.00 0.00 0.00 31 1006.1
20260508233725 76 199 7.0 13.0 0.00 0.00 0.00 31 1006.0
20260508233255 76 221 6.1 13.0 0.00 0.00 0.00 30 1006.0
20260508233030 76 179 6.1 13.0 0.00 0.00 0.00 30 1004.9
20260508232745 76 217 7.0 11.3 0.00 0.00 0.00 29 1006.0
20260508232251 77 194 7.0 13.9 0.00 0.00 0.00 29 1006.0
20260508231742 78 205 8.7 13.9 0.00 0.00 0.00 29 1006.0
20260508231621 78 186 9.6 13.9 0.00 0.00 0.00 29 1004.9
20260508231228 78 178 8.7 13.9 0.00 0.00 0.00 29 1006.0
20260508230738 78 192 7.8 11.3 0.00 0.00 0.00 29 1006.1
20260508230249 78 189 7.8 12.2 0.00 0.00 0.00 28 1006.2
20260508230021 78 165 8.7 12.2 0.00 0.00 0.00 28 1005.1
20260508225755 78 201 7.8 12.2 0.00 0.00 0.00 31 1006.2
20260508225241 78 224 6.1 9.6 0.00 0.00 0.00 30 1006.2
20260508224723 78 203 7.0 10.4 0.00 0.00 0.00 29 1006.3
20260508224526 77 219 7.0 10.4 0.00 0.00 0.00 27 1005.2
20260508224237 78 229 7.0 10.4 0.00 0.00 0.00 27 1006.3
20260508223748 78 235 6.1 11.3 0.00 0.00 0.00 29 1006.3
20260508223230 78 209 7.8 11.3 0.00 0.00 0.00 29 1006.3
20260508223037 77 178 7.8 17.4 0.00 0.00 0.00 30 1005.2
20260508222742 77 171 8.7 17.4 0.00 0.00 0.00 32 1006.3
20260508222224 77 219 12.2 22.6 0.00 0.00 0.00 29 1006.3
20260508221734 77 227 13.9 22.6 0.00 0.00 0.00 28 1006.3
20260508221518 77 232 11.3 20.9 0.00 0.00 0.00 29 1005.2
20260508221243 77 278 13.0 21.7 0.00 0.00 0.00 29 1006.3
20260508220725 77 221 14.8 21.7 0.00 0.00 0.00 29 1006.5
20260508220236 78 228 8.7 12.2 0.00 0.00 0.00 28 1006.6
20260508220032 76 242 6.1 8.7 0.00 0.00 0.00 29 1005.6
20260508215746 76 234 6.1 11.3 0.00 0.00 0.00 29 1006.7
20260508215257 75 206 7.0 12.2 0.00 0.00 0.00 28 1006.6
20260508214747 76 180 7.8 12.2 0.00 0.00 0.00 28 1006.6
20260508214617 75 212 5.2 9.6 0.00 0.00 0.00 28 1005.5
20260508214233 76 168 3.5 13.0 0.00 0.00 0.00 27 1006.7
20260508213757 77 196 7.8 13.0 0.00 0.00 0.00 25 1006.7
20260508213247 77 90 7.0 13.9 0.00 0.00 0.00 28 1006.8
20260508213027 78 238 7.0 11.3 0.00 0.00 0.00 26 1005.8
20260508212729 79 209 7.0 11.3 0.00 0.00 0.00 25 1006.9
20260508212241 80 192 7.8 12.2 0.00 0.00 0.00 27 1006.9
20260508211723 79 222 7.8 12.2 0.00 0.00 0.00 27 1006.9
20260508211530 78 232 4.3 15.6 0.00 0.00 0.00 27 1005.9
20260508211236 79 262 8.7 15.6 0.00 0.00 0.00 26 1007.0
20260508210746 79 219 11.3 15.6 0.00 0.00 0.00 26 1007.1
20260508210230 78 263 8.7 13.9 0.00 0.00 0.00 27 1007.1
20260508210034 77 221 7.0 13.9 0.00 0.00 0.00 27 1006.1
20260508205735 79 244 7.8 13.9 0.00 0.00 0.00 28 1007.1
20260508205243 79 258 7.0 14.8 0.00 0.00 0.00 28 1007.2
20260508204726 80 253 9.6 17.4 0.00 0.00 0.00 27 1007.3
20260508204528 79 277 7.0 17.4 0.00 0.00 0.00 28 1006.3
20260508204300 80 236 11.3 17.4 0.00 0.00 0.00 26 1007.4
20260508203722 79 242 6.1 13.0 0.00 0.00 0.00 29 1007.5
20260508203234 78 240 3.5 14.8 0.00 0.00 0.00 23 1007.5
20260508203007 79 229 3.5 14.8 0.00 0.00 0.00 25 1006.5
20260508202745 80 136 7.0 14.8 0.00 0.00 0.00 26 1007.5
20260508202223 81 180 6.1 10.4 0.00 0.00 0.00 27 1007.6
20260508201733 79 217 7.0 12.2 0.00 0.00 0.00 26 1007.7
20260508201513 77 287 7.8 12.2 0.00 0.00 0.00 27 1006.7
20260508201248 77 317 8.7 12.2 0.00 0.00 0.00 29 1007.7
20260508200728 77 319 6.1 10.4 0.00 0.00 0.00 25 1007.9
20260508200238 77 349 7.0 13.9 0.00 0.00 0.00 29 1008.0
20260508200015 77 315 7.8 13.9 0.00 0.00 0.00 29 1007.0
20260508195747 76 308 9.6 13.9 0.00 0.00 0.00 27 1007.9
20260508195236 77 276 9.6 13.9 0.00 0.00 0.00 27 1008.0
20260508194742 78 261 5.2 13.0 0.00 0.00 0.00 27 1008.1
20260508194554 78 292 6.1 13.0 0.00 0.00 0.00 29 1007.1
20260508194226 79 351 7.0 13.0 0.00 0.00 0.00 25 1008.1
20260508193736 79 340 7.8 13.0 0.00 0.00 0.00 26 1008.2
20260508193226 80 317 10.4 13.0 0.00 0.00 0.00 26 1008.2
20260508193105 79 324 6.1 10.4 0.00 0.00 0.00 26 1007.2
20260508192736 79 299 5.2 7.8 0.00 0.00 0.00 30 1008.3
20260508192307 77 207 0.9 8.7 0.00 0.00 0.00 31 1008.3
20260508191730 77 205 3.5 8.7 0.00 0.00 0.00 31 1008.3
20260508191535 76 205 5.2 8.7 0.00 0.00 0.00 28 1007.4
20260508191238 76 224 6.1 12.2 0.00 0.00 0.00 29 1008.4
20260508190720 74 207 3.5 12.2 0.00 0.00 0.00 25 1008.5
20260508190233 76 271 7.8 11.3 0.00 0.00 0.00 25 1008.5
20260508190028 76 242 6.1 9.6 0.00 0.00 0.00 27 1007.6
20260508185805 76 205 6.1 10.4 0.00 0.00 0.00 27 1008.6
20260508185227 76 201 2.6 11.3 0.00 0.00 0.00 25 1008.7
20260508184737 77 222 7.8 11.3 0.00 0.00 0.00 29 1008.7
20260508184559 77 224 7.0 9.6 0.00 0.00 0.00 28 1007.7
20260508184502 77 270 4.3 9.6 0.00 0.00 0.00 27 1007.7
20260508184250 78 244 4.3 9.6 0.00 0.00 0.00 28 1008.7
20260508183730 78 207 3.5 8.7 0.00 0.00 0.00 24 1008.7
20260508183237 76 213 6.1 9.6 0.00 0.00 0.00 28 1008.8
20260508183001 76 222 4.3 9.6 0.00 0.00 0.00 25 1007.9
20260508182748 76 258 4.3 9.6 0.00 0.00 0.00 26 1008.9
20260508182232 76 200 4.3 7.8 0.00 0.00 0.00 26 1008.9
20260508181742 76 232 1.7 8.7 0.00 0.00 0.00 28 1008.9
20260508181507 76 232 3.5 8.7 0.00 0.00 0.00 28 1008.1
20260508181224 78 256 4.3 8.7 0.00 0.00 0.00 28 1009.0
20260508180732 78 348 3.5 5.2 0.00 0.00 0.00 26 1009.1
20260508180243 77 65 2.6 4.3 0.00 0.00 0.00 29 1009.1
20260508180044 77 65 0.9 5.2 0.00 0.00 0.00 30 1008.2
20260508175728 76 217 2.6 7.0 0.00 0.00 0.00 31 1009.1
20260508175254 75 126 3.5 7.0 0.00 0.00 0.00 25 1009.1
20260508174745 75 95 5.2 7.8 0.00 0.00 0.00 30 1009.2
20260508174611 74 81 2.6 7.8 0.00 0.00 0.00 28 1008.3
20260508174236 75 108 5.2 7.8 0.00 0.00 0.00 28 1009.3
20260508173747 75 99 3.5 5.2 0.00 0.00 0.00 29 1009.4
20260508173229 74 103 2.6 6.1 0.00 0.00 0.00 30 1009.4
20260508173006 73 5 2.6 7.0 0.00 0.00 0.00 29 1008.5
20260508172741 74 28 3.5 7.0 0.00 0.00 0.00 27 1009.4
20260508172221 75 5 4.3 7.0 0.00 0.00 0.00 27 1009.5
20260508171754 75 28 1.7 4.3 0.00 0.00 0.00 31 1009.5
20260508171551 74 279 0.9 5.2 0.00 0.00 0.00 30 1008.6
20260508171244 74 279 0.9 7.0 0.00 0.00 0.00 28 1009.6
20260508170726 74 19 4.3 8.7 0.00 0.00 0.00 26 1009.6
20260508170237 75 17 5.2 8.7 0.00 0.00 0.00 32 1009.6
20260508170054 74 355 2.6 8.7 0.00 0.00 0.00 31 1008.6
20260508170003 74 342 2.6 8.7 0.00 0.00 0.00 31 1008.6
20260508165720 74 202 0.9 8.7 0.00 0.00 0.00 31 1009.6
20260508165233 75 48 4.3 8.7 0.00 0.00 0.00 29 1009.6
20260508164741 76 317 3.5 9.6 0.00 0.00 0.00 29 1009.6
20260508164516 75 360 6.1 9.6 0.00 0.00 0.00 27 1008.6
20260508164225 75 63 6.1 9.6 0.00 0.00 0.00 28 1009.5
20260508163754 76 320 3.5 7.0 0.00 0.00 0.00 33 1009.6
20260508163244 74 134 2.6 7.0 0.00 0.00 0.00 37 1009.7
20260508163042 73 134 1.7 7.0 0.00 0.00 0.00 32 1008.7
20260508162728 74 93 5.2 7.0 0.00 0.00 0.00 32 1009.7
20260508162240 72 60 1.7 4.3 0.00 0.00 0.00 35 1009.6
20260508161749 73 120 0.9 7.8 0.00 0.00 0.00 36 1009.7
20260508161534 72 120 2.6 7.8 0.00 0.00 0.00 34 1008.7
20260508161238 73 140 4.3 7.8 0.00 0.00 0.00 35 1009.6
20260508160721 72 134 1.7 5.2 0.00 0.00 0.00 35 1009.7
20260508160253 73 143 1.7 5.2 0.00 0.00 0.00 40 1009.8
20260508160014 71 162 1.7 7.0 0.00 0.00 0.00 36 1008.8
20260508155743 71 227 1.7 7.0 0.00 0.00 0.00 39 1009.9
20260508155227 72 202 4.3 7.0 0.00 0.00 0.00 41 1009.8
20260508154739 70 130 3.5 6.1 0.00 0.00 0.00 45 1009.9
20260508154515 70 163 2.6 7.0 0.00 0.00 0.00 42 1009.0
20260508154225 70 161 2.6 7.0 0.00 0.00 0.00 46 1009.9
20260508153733 69 171 3.5 9.6 0.00 0.00 0.00 42 1010.0
20260508153240 68 184 2.6 9.6 0.00 0.00 0.00 47 1010.0
20260508153051 67 157 4.3 9.6 0.00 0.00 0.00 44 1009.1
20260508152723 68 155 4.3 7.0 0.00 0.00 0.00 45 1010.1
20260508152233 66 146 3.5 7.0 0.00 0.00 0.00 47 1010.0
20260508151745 65 144 3.5 7.0 0.00 0.00 0.00 47 1009.9
20260508151601 65 144 4.3 7.0 0.00 0.00 0.00 48 1009.1
20260508151230 65 153 4.3 7.0 0.00 0.00 0.00 47 1009.9
20260508150801 66 148 4.3 9.6 0.00 0.00 0.00 46 1009.9
20260508150223 65 175 5.2 9.6 0.00 0.00 0.00 45 1010.0
20260508150043 65 165 6.1 9.6 0.00 0.00 0.00 43 1009.1
20260508145729 65 147 7.0 8.7 0.00 0.00 0.00 45 1010.0
20260508145241 64 172 4.3 7.8 0.00 0.00 0.00 53 1010.0
20260508144724 64 147 5.2 7.8 0.00 0.00 0.00 46 1010.1
20260508144546 64 124 5.2 9.6 0.00 0.00 0.00 48 1009.2
20260508144257 63 156 4.3 9.6 0.00 0.00 0.00 50 1010.2
20260508143747 62 160 5.2 10.4 0.00 0.00 0.00 52 1010.2
20260508143257 61 169 4.3 6.1 0.00 0.00 0.00 52 1010.3
20260508143053 61 170 3.5 6.1 0.00 0.00 0.00 51 1009.5
20260508142742 61 152 1.7 4.3 0.00 0.00 0.00 53 1010.3
20260508142225 61 152 0.9 6.1 0.00 0.00 0.00 54 1010.3
20260508141739 61 159 2.6 6.1 0.00 0.00 0.00 57 1010.3
20260508141555 60 163 2.6 6.1 0.00 0.00 0.00 55 1009.4
20260508141249 60 180 3.5 5.2 0.00 0.00 0.00 55 1010.2
20260508140730 59 166 3.5 6.1 0.00 0.00 0.00 57 1010.2
20260508140241 58 184 4.3 6.1 0.00 0.00 0.00 59 1010.3
20260508140044 57 171 1.7 3.5 0.00 0.00 0.00 60 1009.4
20260508135724 57 171 1.7 3.5 0.00 0.00 0.00 63 1010.3
20260508135232 55 171 0.9 3.5 0.00 0.00 0.00 65 1010.2
20260508134744 55 171 1.7 3.5 0.00 0.00 0.00 67 1010.3
20260508134528 54 171 1.7 4.3 0.00 0.00 0.00 66 1009.4
20260508134227 54 171 1.7 5.2 0.00 0.00 0.00 64 1010.3
20260508133736 54 171 3.5 5.2 0.00 0.00 0.00 64 1010.4
20260508133247 54 171 2.6 4.3 0.00 0.00 0.00 62 1010.4
20260508133031 54 178 0.9 2.6 0.00 0.00 0.00 62 1009.6
20260508132728 54 178 1.7 4.3 0.00 0.00 0.00 62 1010.4
20260508132240 54 178 1.7 5.2 0.00 0.00 0.00 62 1010.4
20260508131724 54 175 3.5 6.1 0.00 0.00 0.00 61 1010.4
20260508131542 53 185 3.5 6.1 0.00 0.00 0.00 61 1009.6
20260508131232 54 189 3.5 6.1 0.00 0.00 0.00 60 1010.3
20260508130741 54 162 3.5 7.0 0.00 0.00 0.00 59 1010.2
20260508130310 54 157 4.3 6.1 0.00 0.00 0.00 58 1010.0
20260508130023 53 172 2.6 4.3 0.00 0.00 0.00 59 1009.2
20260508125731 53 172 2.6 4.3 0.00 0.00 0.00 58 1010.0
20260508125244 53 173 2.6 6.1 0.00 0.00 0.00 59 1009.9
20260508124727 53 218 3.5 6.1 0.00 0.00 0.00 58 1009.9
20260508124534 53 134 3.5 6.1 0.00 0.00 0.00 58 1009.1
20260508124243 53 158 4.3 6.1 0.00 0.00 0.00 58 1009.9
20260508123727 53 176 3.5 5.2 0.00 0.00 0.00 58 1009.9
20260508123235 52 158 1.7 7.0 0.00 0.00 0.00 58 1009.9
20260508123029 52 279 0.0 7.0 0.00 0.00 0.00 58 1009.1
20260508122805 52 301 3.5 7.0 0.00 0.00 0.00 60 1010.0
20260508122226 52 17 1.7 7.8 0.00 0.00 0.00 59 1009.9
20260508121739 51 13 3.5 7.8 0.00 0.00 0.00 60 1009.9
20260508121517 51 14 5.2 7.8 0.00 0.00 0.00 60 1009.2
20260508121252 51 309 4.3 7.0 0.00 0.00 0.00 60 1010.0
20260508120735 51 44 4.3 5.2 0.00 0.00 0.00 59 1009.8
20260508120246 51 348 3.5 7.8 0.00 0.00 0.00 59 1009.9
20260508120031 50 5 2.6 7.8 0.00 0.00 0.00 59 1009.0
20260508115725 51 355 5.2 7.8 0.00 0.00 0.00 59 1009.9
20260508115235 51 338 3.5 5.2 0.00 0.00 0.00 60 1010.0
20260508114748 50 355 3.5 5.2 0.00 0.00 0.00 60 1010.0
20260508114527 50 347 3.5 4.3 0.00 0.00 0.00 59 1009.2
20260508114231 50 5 4.3 4.3 0.00 0.00 0.00 59 1009.7
20260508113742 50 168 4.3 4.3 0.00 0.00 0.00 59 1009.7
20260508113224 50 168 3.5 4.3 0.00 0.00 0.00 58 1009.7
20260508113029 50 168 2.6 4.3 0.00 0.00 0.00 58 1008.9
20260508112739 50 168 3.5 4.3 0.00 0.00 0.00 58 1009.7
20260508112239 50 168 2.6 4.3 0.00 0.00 0.00 57 1009.7
20260508111739 51 168 2.6 4.3 0.00 0.00 0.00 57 1009.7
20260508111544 50 168 2.6 4.3 0.00 0.00 0.00 57 1009.0
20260508111301 51 168 3.5 5.2 0.00 0.00 0.00 57 1009.7
20260508110750 51 168 3.5 5.2 0.00 0.00 0.00 57 1009.8
20260508110306 51 168 4.3 5.2 0.00 0.00 0.00 57 1009.8
20260508110022 51 168 4.3 5.2 0.00 0.00 0.00 57 1009.0
20260508105731 51 168 3.5 4.3 0.00 0.00 0.00 57 1009.9
20260508105321 51 168 0.9 7.0 0.00 0.00 0.00 56 1009.8
20260508104728 51 168 4.3 7.8 0.00 0.00 0.00 56 1009.7
20260508104542 51 168 4.3 7.8 0.00 0.00 0.00 56 1008.9
20260508104241 52 163 4.3 7.8 0.00 0.00 0.00 55 1009.7
20260508103722 52 14 4.3 7.8 0.00 0.00 0.00 56 1010.0
20260508103235 52 20 5.2 7.8 0.00 0.00 0.00 56 1009.9
20260508103048 51 17 6.1 7.8 0.00 0.00 0.00 56 1009.2
20260508102743 52 10 6.1 8.7 0.00 0.00 0.00 57 1010.1
20260508102227 52 21 7.0 8.7 0.00 0.00 0.00 58 1010.2
20260508101740 52 12 6.1 7.8 0.00 0.00 0.00 56 1009.9
20260508101556 51 13 4.3 7.0 0.00 0.00 0.00 55 1009.2
20260508101249 52 9 3.5 5.2 0.00 0.00 0.00 56 1010.0
20260508100731 52 32 2.6 7.0 0.00 0.00 0.00 56 1010.1
20260508100259 52 5 5.2 7.0 0.00 0.00 0.00 57 1010.2
20260508100034 51 13 4.3 7.0 0.00 0.00 0.00 57 1009.4
20260508095722 52 17 5.2 7.8 0.00 0.00 0.00 59 1010.2
20260508095234 52 25 5.2 7.8 0.00 0.00 0.00 59 1010.2
20260508094744 52 19 5.2 7.0 0.00 0.00 0.00 56 1010.3
20260508094537 52 5 5.2 7.0 0.00 0.00 0.00 56 1009.7
20260508094229 53 355 4.3 7.0 0.00 0.00 0.00 56 1010.4
20260508093735 53 5 5.2 7.0 0.00 0.00 0.00 55 1010.4
20260508093247 53 5 4.3 5.2 0.00 0.00 0.00 53 1010.3
20260508093036 53 5 3.5 4.3 0.00 0.00 0.00 52 1009.6
20260508092729 54 201 3.5 3.5 0.00 0.00 0.00 51 1010.2
20260508092239 54 201 1.7 3.5 0.00 0.00 0.00 50 1010.2
20260508091750 54 201 1.7 3.5 0.00 0.00 0.00 50 1010.1
20260508091538 54 201 1.7 3.5 0.00 0.00 0.00 50 1009.5
20260508091236 54 202 0.9 2.6 0.00 0.00 0.00 50 1010.3
20260508090745 55 201 1.7 2.6 0.00 0.00 0.00 50 1010.3
20260508090225 55 201 0.0 3.5 0.00 0.00 0.00 49 1010.3
20260508090040 54 201 0.0 3.5 0.00 0.00 0.00 49 1009.7
20260508085752 55 201 2.6 3.5 0.00 0.00 0.00 48 1010.2
20260508085243 55 5 0.0 3.5 0.00 0.00 0.00 49 1010.3
20260508084726 55 5 0.9 3.5 0.00 0.00 0.00 49 1010.5
20260508084522 55 5 1.7 3.5 0.00 0.00 0.00 51 1009.7
20260508084240 55 360 2.6 4.3 0.00 0.00 0.00 50 1010.3
20260508083751 55 20 2.6 4.3 0.00 0.00 0.00 49 1010.1
20260508083301 55 204 2.6 3.5 0.00 0.00 0.00 48 1010.1
20260508083037 55 204 1.7 3.5 0.00 0.00 0.00 49 1009.4
20260508082725 56 204 0.9 3.5 0.00 0.00 0.00 48 1010.5
20260508082252 56 204 2.6 3.5 0.00 0.00 0.00 48 1010.2
20260508081742 56 204 1.7 3.5 0.00 0.00 0.00 48 1010.3
20260508081520 55 204 0.0 3.5 0.00 0.00 0.00 47 1009.8
20260508081256 56 204 1.7 3.5 0.00 0.00 0.00 46 1010.4
20260508080804 56 204 1.7 3.5 0.00 0.00 0.00 46 1010.6
20260508080225 56 204 0.0 6.1 0.00 0.00 0.00 47 1010.6
20260508080046 56 204 0.9 6.1 0.00 0.00 0.00 47 1010.1
20260508075731 56 204 4.3 6.1 0.00 0.00 0.00 46 1010.8
20260508075238 57 74 2.6 3.5 0.00 0.00 0.00 46 1010.6
20260508074809 57 120 0.9 1.7 0.00 0.00 0.00 46 1011.0
20260508074526 56 120 0.0 1.7 0.00 0.00 0.00 48 1010.4
20260508074232 57 120 0.9 2.6 0.00 0.00 0.00 46 1010.7
20260508073743 57 120 0.9 2.6 0.00 0.00 0.00 43 1010.8
20260508073226 57 120 1.7 5.2 0.00 0.00 0.00 43 1010.7
20260508073025 56 120 1.7 5.2 0.00 0.00 0.00 43 1010.0